H1 CPF 2 NER 2024 11 21 9 326 01 glonass131 H2 1301901 9131 39155 2024 11 21 0 0 0 2024 11 24 23 45 0 900 1 1 0 0 0 1 H9 10 0 60635 0.00000 0 12804921.073 16324793.197 14932809.623 10 0 60635 900.00000 0 11168768.207 15208781.009 17245063.590 10 0 60635 1800.00000 0 9218614.815 14100002.116 19224494.622 10 0 60635 2700.00000 0 6988351.252 13054133.671 20832863.409 10 0 60635 3600.00000 0 4522981.225 12120694.941 22039036.115 10 0 60635 4500.00000 0 1877017.994 11340954.508 22819579.553 10 0 60635 5400.00000 0 -887511.892 10746195.985 23159215.342 10 0 60635 6300.00000 0 -3703377.783 10356413.929 23051124.573 10 0 60635 7200.00000 0 -6500674.741 10179494.465 22497096.626 10 0 60635 8100.00000 0 -9209472.336 10210915.683 21507518.170 10 0 60635 9000.00000 0 -11762475.378 10433981.939 20101200.739 10 0 60635 9900.00000 0 -14097588.154 10820584.462 18305047.905 10 0 60635 10800.00000 0 -16160276.817 11332458.875 16153565.853 10 0 60635 11700.00000 0 -17905631.801 11922889.407 13688224.024 10 0 60635 12600.00000 0 -19300043.516 12538790.375 10956675.646 10 0 60635 13500.00000 0 -20322419.866 13123078.881 8011850.979 10 0 60635 14400.00000 0 -20964892.612 13617239.421 4910939.264 10 0 60635 15300.00000 0 -21232980.732 13963971.817 1714278.270 10 0 60635 16200.00000 0 -21145201.853 14109809.201 -1515826.998 10 0 60635 17100.00000 0 -20732146.525 14007593.039 -4716332.648 10 0 60635 18000.00000 0 -20035053.437 13618697.411 -7824705.791 10 0 60635 18900.00000 0 -19103945.710 12914905.002 -10780169.451 10 0 60635 19800.00000 0 -17995407.809 11879851.871 -13524915.712 10 0 60635 20700.00000 0 -16770098.706 10509976.715 -16005260.748 10 0 60635 21600.00000 0 -15490108.628 8814931.802 -18172716.653 10 0 60635 22500.00000 0 -14216273.591 6817436.349 -19984957.019 10 0 60635 23400.00000 0 -13005563.721 4552577.494 -21406655.692 10 0 60635 24300.00000 0 -11908657.735 2066588.101 -22410181.380 10 0 60635 25200.00000 0 -10967807.468 -584846.712 -22976134.180 10 0 60635 26100.00000 0 -10215083.179 -3338682.175 -23093713.928 10 0 60635 27000.00000 0 -9671073.352 -6126916.601 -22760914.091 10 0 60635 27900.00000 0 -9344092.593 -8879202.418 -21984538.871 10 0 60635 28800.00000 0 -9229929.003 -11525555.313 -20780044.921 10 0 60635 29700.00000 0 -9312139.072 -13999047.858 -19171212.757 10 0 60635 30600.00000 0 -9562874.694 -16238375.346 -17189656.268 10 0 60635 31500.00000 0 -9944204.449 -18190187.722 -14874181.852 10 0 60635 32400.00000 0 -10409870.600 -19811091.976 -12270011.435 10 0 60635 33300.00000 0 -10907405.390 -21069243.866 -9427885.997 10 0 60635 34200.00000 0 -11380515.622 -21945465.391 -6403068.222 10 0 60635 35100.00000 0 -11771633.975 -22433844.612 -3254264.446 10 0 60635 36000.00000 0 -12024529.240 -22541796.065 -42487.162 10 0 60635 36900.00000 0 -12086865.880 -22289582.345 3170119.905 10 0 60635 37800.00000 0 -11912606.169 -21709319.561 6321471.953 10 0 60635 38700.00000 0 -11464155.155 -20843510.288 9350726.452 10 0 60635 39600.00000 0 -10714159.838 -19743166.593 12199438.144 10 0 60635 40500.00000 0 -9646888.371 -18465602.023 14812665.128 10 0 60635 41400.00000 0 -8259132.505 -17071984.349 17140006.610 10 0 60635 42300.00000 0 -6560595.905 -15624750.133 19136554.356 10 0 60635 43200.00000 0 -4573751.747 -14184987.305 20763741.490 10 0 60635 44100.00000 0 -2333174.326 -12809892.920 21990074.130 10 0 60635 45000.00000 0 115629.503 -11550410.072 22791733.134 10 0 60635 45900.00000 0 2717843.228 -10449140.644 23153035.340 10 0 60635 46800.00000 0 5411353.802 -9538619.575 23066745.666 10 0 60635 47700.00000 0 8129074.944 -8840021.976 22534233.653 10 0 60635 48600.00000 0 10801487.712 -8362357.138 21565470.328 10 0 60635 49500.00000 0 13359296.085 -8102184.005 20178863.657 10 0 60635 50400.00000 0 15736089.740 -8043861.593 18400933.484 10 0 60635 51300.00000 0 17870904.988 -8160325.936 16265829.612 10 0 60635 52200.00000 0 19710577.943 -8414363.266 13814699.546 10 0 60635 53100.00000 0 21211791.412 -8760328.080 11094915.563 10 0 60635 54000.00000 0 22342728.772 -9146235.573 8159173.813 10 0 60635 54900.00000 0 23084263.668 -9516141.234 5064481.258 10 0 60635 55800.00000 0 23430633.272 -9812707.279 1871049.249 10 0 60635 56700.00000 0 23389564.443 -9979846.559 -1358884.826 10 0 60635 57600.00000 0 22981845.356 -9965330.200 -4562284.168 10 0 60635 58500.00000 0 22240359.104 -9723245.914 -7676561.972 10 0 60635 59400.00000 0 21208619.327 -9216199.593 -10640827.200 10 0 60635 60300.00000 0 19938869.831 -8417163.462 -13397099.882 10 0 60635 61200.00000 0 18489829.463 -7310889.148 -15891469.588 10 0 60635 62100.00000 0 16924179.262 -5894822.858 -18075171.907 10 0 60635 63000.00000 0 15305900.155 -4179481.654 -19905559.751 10 0 60635 63900.00000 0 13697575.986 -2188273.378 -21346948.773 10 0 60635 64800.00000 0 12157777.798 43232.854 -22371319.389 10 0 60635 65700.00000 0 10738641.352 2468554.830 -22958861.323 10 0 60635 66600.00000 0 9483740.884 5032010.861 -23098350.329 10 0 60635 67500.00000 0 8426348.702 7670825.795 -22787350.688 10 0 60635 68400.00000 0 7588152.924 10317539.881 -22032240.893 10 0 60635 69300.00000 0 6978485.525 12902618.422 -20848063.788 10 0 60635 70200.00000 0 6594090.579 15357152.244 -19258206.051 10 0 60635 71100.00000 0 6419439.339 17615535.861 -17293915.269 10 0 60635 72000.00000 0 6427575.558 19618011.782 -14993666.002 10 0 60635 72900.00000 0 6581452.103 21312975.839 -12402388.975 10 0 60635 73800.00000 0 6835699.573 22658949.070 -9570579.904 10 0 60635 74700.00000 0 7138749.924 23626136.172 -6553306.527 10 0 60635 75600.00000 0 7435223.833 24197508.256 -3409133.941 10 0 60635 76500.00000 0 7668480.199 24369367.702 -198989.465 10 0 60635 77400.00000 0 7783220.182 24151374.502 3015010.972 10 0 60635 78300.00000 0 7728036.558 23566035.686 6170752.723 10 0 60635 79200.00000 0 7457802.147 22647681.383 9207306.553 10 0 60635 80100.00000 0 6935798.223 21440971.763 12066085.436 10 0 60635 81000.00000 0 6135494.882 19998997.928 14691953.400 10 0 60635 81900.00000 0 5041909.896 18381055.842 17034266.979 10 0 60635 82800.00000 0 3652489.848 16650185.232 19047831.179 10 0 60635 83700.00000 0 1977476.744 14870574.451 20693753.593 10 0 60635 84600.00000 0 39744.039 13104937.374 21940181.998 10 0 60635 85500.00000 0 -2125892.717 11411969.314 22762912.670 10 0 60636 0.00000 0 -4473864.090 9843985.832 23145858.637 10 0 60636 900.00000 0 -6949488.786 8444840.066 23081369.296 10 0 60636 1800.00000 0 -9491001.587 7248206.108 22570394.430 10 0 60636 2700.00000 0 -12031890.672 6276296.597 21622489.071 10 0 60636 3600.00000 0 -14503447.640 5539070.344 20255656.769 10 0 60636 4500.00000 0 -16837428.278 5033963.198 18496032.297 10 0 60636 5400.00000 0 -18968715.335 4746155.111 16377407.255 10 0 60636 6300.00000 0 -20837873.562 4649364.169 13940604.971 10 0 60636 7200.00000 0 -22393490.471 4707136.304 11232714.197 10 0 60636 8100.00000 0 -23594204.111 4874578.252 8306194.139 10 0 60636 9000.00000 0 -24410331.206 5100462.044 5217866.498 10 0 60636 9900.00000 0 -24825024.965 5329612.721 2027813.155 10 0 60636 10800.00000 0 -24834911.296 5505477.929 -1201799.190 10 0 60636 11700.00000 0 -24450174.121 5572769.299 -4407943.857 10 0 60636 12600.00000 0 -23694084.030 5480061.471 -7527983.103 10 0 60636 13500.00000 0 -22601988.748 5182235.682 -10500914.703 10 0 60636 14400.00000 0 -21219807.422 4642661.019 -13268589.384 10 0 60636 15300.00000 0 -19602092.630 3835017.470 -15776872.677 10 0 60636 16200.00000 0 -17809743.086 2744680.399 -17976725.971 10 0 60636 17100.00000 0 -15907465.301 1369605.158 -19825183.457 10 0 60636 18000.00000 0 -13961093.420 -279327.450 -21286204.135 10 0 60636 18900.00000 0 -12034882.318 -2178520.610 -22331381.209 10 0 60636 19800.00000 0 -10188889.738 -4292417.302 -22940494.602 10 0 60636 20700.00000 0 -8476558.898 -6574770.234 -23101896.083 10 0 60636 21600.00000 0 -6942603.570 -8970371.570 -22812720.355 10 0 60636 22500.00000 0 -5621284.006 -11417168.603 -22078919.387 10 0 60636 23400.00000 0 -4535144.603 -13848675.294 -20915121.022 10 0 60636 24300.00000 0 -3694264.005 -16196577.575 -19344316.583 10 0 60636 25200.00000 0 -3096046.036 -18393422.648 -17397385.581 10 0 60636 26100.00000 0 -2725556.787 -20375279.616 -15112468.776 10 0 60636 27000.00000 0 -2556390.027 -22084260.718 -12534203.603 10 0 60636 27900.00000 0 -2552020.994 -23470799.000 -9712838.366 10 0 60636 28800.00000 0 -2667588.536 -24495588.992 -6703243.703 10 0 60636 29700.00000 0 -2852028.063 -25131111.650 -3563841.342 10 0 60636 30600.00000 0 -3050463.789 -25362682.456 -355471.340 10 0 60636 31500.00000 0 -3206758.645 -25188981.638 2859780.222 10 0 60636 32400.00000 0 -3266114.395 -24622046.945 6019770.879 10 0 60636 33300.00000 0 -3177613.138 -23686731.536 9063486.712 10 0 60636 34200.00000 0 -2896594.384 -22419651.240 11932200.945 10 0 60636 35100.00000 0 -2386769.181 -20867666.074 14570585.547 10 0 60636 36000.00000 0 -1621983.876 -19085959.414 16927756.333 10 0 60636 36900.00000 0 -587560.606 -17135794.168 18958233.432 10 0 60636 37800.00000 0 718841.099 -15082037.945 20622800.637 10 0 60636 38700.00000 0 2286877.873 -12990558.171 21889248.939 10 0 60636 39600.00000 0 4093706.797 -10925593.148 22732991.357 10 0 60636 40500.00000 0 6104694.646 -8947205.885 23137538.224 10 0 60636 41400.00000 0 8274625.310 -7108924.317 23094824.104 10 0 60636 42300.00000 0 10549358.390 -5455664.193 22605379.702 10 0 60636 43200.00000 0 12867873.559 -4022019.926 21678344.383 10 0 60636 44100.00000 0 15164619.226 -2830994.087 20331317.361 10 0 60636 45000.00000 0 17372070.922 -1893218.981 18590048.163 10 0 60636 45900.00000 0 19423395.432 -1206703.782 16487969.748 10 0 60636 46800.00000 0 21255111.232 -757119.466 14065580.539 10 0 60636 47700.00000 0 22809634.705 -518611.389 11369684.691 10 0 60636 48600.00000 0 24037605.178 -455107.226 8452503.033 10 0 60636 49500.00000 0 24899889.920 -522066.661 5370670.174 10 0 60636 50400.00000 0 25369182.658 -668599.889 2184136.296 10 0 60636 51300.00000 0 25431125.750 -839865.471 -1045005.178 10 0 60636 52200.00000 0 25084905.890 -979645.206 -4253740.569 10 0 60636 53100.00000 0 24343295.642 -1032985.176 -7379384.272 10 0 60636 54000.00000 0 23232136.951 -948788.493 -10360826.037 10 0 60636 54900.00000 0 21789287.143 -682246.713 -13139750.428 10 0 60636 55800.00000 0 20063071.468 -197003.535 -15661801.969 10 0 60636 56700.00000 0 18110307.983 533044.179 -17877670.703 10 0 60636 57600.00000 0 15993989.282 1522387.207 -19744074.747 10 0 60636 58500.00000 0 13780720.569 2773046.324 -21224618.865 10 0 60636 59400.00000 0 11538023.927 4274253.957 -22290511.191 10 0 60636 60300.00000 0 9331624.057 6002689.222 -22921123.704 10 0 60636 61200.00000 0 7222831.025 7923256.268 -23104385.694 10 0 60636 62100.00000 0 5266130.701 9990372.407 -22837003.420 10 0 60636 63000.00000 0 3507083.846 12149710.638 -22124503.026 10 0 60636 63900.00000 0 1980620.950 14340321.942 -20981097.585 10 0 60636 64800.00000 0 709802.279 16497046.924 -19429382.809 10 0 60636 65700.00000 0 -294907.687 18553114.608 -17499869.393 10 0 60636 66600.00000 0 -1035824.413 20442818.822 -15230363.077 10 0 60636 67500.00000 0 -1527682.128 22104160.078 -12665206.316 10 0 60636 68400.00000 0 -1796746.285 23481342.965 -9854397.902 10 0 60636 69300.00000 0 -1879440.556 24527025.749 -6852608.886 10 0 60636 70200.00000 0 -1820549.150 25204229.904 -3718114.821 10 0 60636 71100.00000 0 -1671072.478 25487831.893 -511665.443 10 0 60636 72000.00000 0 -1485827.935 25365577.262 2704686.236 10 0 60636 72900.00000 0 -1320897.465 24838577.079 5868773.248 10 0 60636 73800.00000 0 -1231029.183 23921268.165 8919500.296 10 0 60636 74700.00000 0 -1267101.578 22640840.474 11798004.079 10 0 60636 75600.00000 0 -1473755.655 21036156.613 14448767.590 10 0 60636 76500.00000 0 -1887293.014 19156208.810 16820668.818 10 0 60636 77400.00000 0 -2533926.786 17058177.102 18867945.669 10 0 60636 78300.00000 0 -3428457.726 14805168.262 20551060.532 10 0 60636 79200.00000 0 -4573430.617 12463727.477 21837449.710 10 0 60636 80100.00000 0 -5958806.687 10101223.810 22702144.738 10 0 60636 81000.00000 0 -7562167.093 7783215.351 23128254.630 10 0 60636 81900.00000 0 -9349441.162 5570900.888 23107300.163 10 0 60636 82800.00000 0 -11276131.946 3518761.649 22639393.406 10 0 60636 83700.00000 0 -13288991.362 1672489.420 21733258.041 10 0 60636 84600.00000 0 -15328078.724 67286.136 20406088.384 10 0 60636 85500.00000 0 -17329120.203 -1273394.407 18683247.601 10 0 60637 0.00000 0 -19226073.555 -2338609.626 16597808.556 10 0 60637 900.00000 0 -20953794.146 -3130163.468 14189942.235 10 0 60637 1800.00000 0 -22450689.390 -3662301.104 11506165.788 10 0 60637 2700.00000 0 -23661253.887 -3960875.966 8598458.744 10 0 60637 3600.00000 0 -24538375.301 -4062021.035 5523265.453 10 0 60637 4500.00000 0 -25045313.182 -4010379.838 2340401.085 10 0 60637 5400.00000 0 -25157264.649 -3856971.275 -888117.592 10 0 60637 6300.00000 0 -24862447.993 -3656778.917 -4099293.285 10 0 60637 7200.00000 0 -24162655.490 -3466168.158 -7230395.854 10 0 60637 8100.00000 0 -23073249.489 -3340242.744 -10220210.265 10 0 60637 9000.00000 0 -21622599.946 -3330255.522 -13010258.004 10 0 60637 9900.00000 0 -19850985.995 -3481186.325 -15545965.467 10 0 60637 10800.00000 0 -17809007.686 -3829592.884 -17777753.941 10 0 60637 11700.00000 0 -15555575.444 -4401828.769 -19662027.669 10 0 60637 12600.00000 0 -13155563.272 -5212706.285 -21162038.888 10 0 60637 13500.00000 0 -10677226.150 -6264662.576 -22248611.831 10 0 60637 14400.00000 0 -8189491.995 -7547465.133 -22900711.097 10 0 60637 15300.00000 0 -5759243.496 -9038469.202 -23105843.462 10 0 60637 16200.00000 0 -3448704.899 -10703415.609 -22860286.143 10 0 60637 17100.00000 0 -1313043.556 -12497734.263 -22169138.361 10 0 60637 18000.00000 0 601713.846 -14368296.926 -21046196.892 10 0 60637 18900.00000 0 2260364.676 -16255543.997 -19513659.981 10 0 60637 19800.00000 0 3639745.320 -18095894.539 -17601667.383 10 0 60637 20700.00000 0 4729429.969 -19824337.256 -15347687.499 10 0 60637 21600.00000 0 5531887.655 -21377093.161 -12795765.389 10 0 60637 22500.00000 0 6062094.867 -22694238.343 -9995647.830 10 0 60637 23400.00000 0 6346623.876 -23722177.514 -7001803.789 10 0 60637 24300.00000 0 6422248.563 -24415866.028 -3872360.171 10 0 60637 25200.00000 0 6334129.274 -24740689.042 -667973.991 10 0 60637 26100.00000 0 6133655.160 -24673921.217 2549337.131 10 0 60637 27000.00000 0 5876036.050 -24205708.110 5717383.931 10 0 60637 27900.00000 0 5617745.517 -23339530.253 8774991.835 10 0 60637 28800.00000 0 5413922.291 -22092132.287 11663162.993 10 0 60637 29700.00000 0 5315838.213 -20492921.254 14326193.257 10 0 60637 30600.00000 0 5368537.700 -18582859.598 16712724.472 10 0 60637 31500.00000 0 5608746.257 -16412898.643 18776713.819 10 0 60637 32400.00000 0 6063134.429 -14042016.598 20478303.572 10 0 60637 33300.00000 0 6747009.031 -11534940.738 21784576.403 10 0 60637 34200.00000 0 7663486.238 -8959645.949 22670183.163 10 0 60637 35100.00000 0 8803181.775 -6384730.676 23117832.104 10 0 60637 36000.00000 0 10144432.656 -3876776.264 23118630.513 10 0 60637 36900.00000 0 11654043.577 -1497796.612 22672271.900 10 0 60637 37800.00000 0 13288529.767 697118.199 21787064.125 10 0 60637 38700.00000 0 14995807.802 2661868.004 20479796.276 10 0 60637 39600.00000 0 16717267.180 4361033.151 18775444.644 10 0 60637 40500.00000 0 18390139.227 5771119.168 16706720.907 10 0 60637 41400.00000 0 19950066.776 6881302.723 14313468.473 10 0 60637 42300.00000 0 21333768.618 7693646.323 11641916.043 10 0 60637 43200.00000 0 22481687.567 8222771.054 8743800.488 10 0 60637 44100.00000 0 23340510.389 8494999.404 5675374.267 10 0 60637 45000.00000 0 23865452.029 8547002.801 2496315.626 10 0 60637 45900.00000 0 24022205.496 8424010.047 -731437.507 10 0 60637 46800.00000 0 23788472.235 8177652.247 -3944906.625 10 0 60637 47700.00000 0 23155005.193 7863536.134 -7081319.617 10 0 60637 48600.00000 0 22126117.501 7538650.227 -10079359.298 10 0 60637 49500.00000 0 20719632.725 7258716.061 -12880386.712 10 0 60637 50400.00000 0 18966276.948 7075599.643 -15429612.682 10 0 60637 51300.00000 0 16908537.379 7034895.934 -17677192.176 10 0 60637 52200.00000 0 14599035.526 7173791.669 -19579217.860 10 0 60637 53100.00000 0 12098484.214 7519299.613 -21098591.590 10 0 60637 54000.00000 0 9473315.680 8086940.895 -22205755.680 10 0 60637 54900.00000 0 6793082.031 8879932.292 -22879269.144 10 0 60637 55800.00000 0 4127738.786 9888913.064 -23106217.816 10 0 60637 56700.00000 0 1544926.638 11092222.399 -22882451.152 10 0 60637 57600.00000 0 -892634.041 12456714.599 -22212642.370 10 0 60637 58500.00000 0 -3129526.997 13939076.034 -21110172.454 10 0 60637 59400.00000 0 -5119703.507 15487586.610 -19596842.214 10 0 60637 60300.00000 0 -6828141.041 17044249.834 -17702420.016 10 0 60637 61200.00000 0 -8232030.516 18547200.353 -15464036.002 10 0 60637 62100.00000 0 -9321445.884 19933286.696 -12925436.454 10 0 60637 63000.00000 0 -10099471.825 21140720.208 -10136114.370 10 0 60637 63900.00000 0 -10581788.127 22111679.024 -7150334.503 10 0 60637 64800.00000 0 -10795731.971 22794758.563 -4026072.699 10 0 60637 65700.00000 0 -10778880.810 23147167.023 -823890.596 10 0 60637 66600.00000 0 -10577218.017 23136575.529 2394232.409 10 0 60637 67500.00000 0 -10242960.231 22742547.345 5566087.719 10 0 60637 68400.00000 0 -9832138.626 21957488.263 8630424.521 10 0 60637 69300.00000 0 -9402035.843 20787080.087 11528113.482 10 0 60637 70200.00000 0 -9008585.534 19250180.380 14203266.349 10 0 60637 71100.00000 0 -8703842.478 17378193.221 16604291.787 10 0 60637 72000.00000 0 -8533627.809 15213937.053 18684869.083 10 0 60637 72900.00000 0 -8535446.510 12810055.763 20404823.059 10 0 60637 73800.00000 0 -8736763.047 10227037.283 21730885.182 10 0 60637 74700.00000 0 -9153706.530 7530919.599 22637327.767 10 0 60637 75600.00000 0 -9790259.472 4790776.508 23106460.101 10 0 60637 76500.00000 0 -10637964.853 2076084.286 23128977.379 10 0 60637 77400.00000 0 -11676165.337 -545924.461 22704155.482 10 0 60637 78300.00000 0 -12872767.062 -3012812.674 21839886.861 10 0 60637 79200.00000 0 -14185499.035 -5269292.582 20552555.236 10 0 60637 80100.00000 0 -15563618.695 -7269284.739 18866749.317 10 0 60637 81000.00000 0 -16949995.426 -8977597.148 16814818.518 10 0 60637 81900.00000 0 -18283487.528 -10371154.054 14436276.490 10 0 60637 82800.00000 0 -19501514.988 -11439721.984 11777061.365 10 0 60637 83700.00000 0 -20542721.073 -12186101.052 8888664.666 10 0 60637 84600.00000 0 -21349610.856 -12625771.729 5827143.955 10 0 60637 85500.00000 0 -21871054.411 -12786010.213 2652037.304 10 0 60638 0.00000 0 -22064547.107 -12704508.482 -574799.298 10 0 60638 900.00000 0 -21898128.800 -12427556.512 -3790410.202 10 0 60638 1800.00000 0 -21351877.465 -12007863.923 -6931984.553 10 0 60638 2700.00000 0 -20418911.172 -11502114.162 -9938106.500 10 0 60638 3600.00000 0 -19105852.732 -10968356.713 -12749980.041 10 0 60638 4500.00000 0 -17432735.100 -10463350.377 -15312603.658 10 0 60638 5400.00000 0 -15432349.850 -10039972.992 -17575868.967 10 0 60638 6300.00000 0 -13149065.452 -9744810.271 -19495559.656 10 0 60638 7200.00000 0 -10637165.247 -9616028.449 -21034229.322 10 0 60638 8100.00000 0 -7958775.866 -9681622.866 -22161939.910 10 0 60638 9000.00000 0 -5181474.425 -9958117.889 -22856845.773 10 0 60638 9900.00000 0 -2375676.426 -10449773.579 -23105612.085 10 0 60638 10800.00000 0 388084.808 -11148332.239 -22903660.197 10 0 60638 11700.00000 0 3041872.310 -12033314.422 -22255236.426 10 0 60638 12600.00000 0 5522939.361 -13072850.192 -21173304.597 10 0 60638 13500.00000 0 7776095.168 -14225008.567 -19679266.316 10 0 60638 14400.00000 0 9755744.816 -15439566.989 -17802516.476 10 0 60638 15300.00000 0 11427520.427 -16660144.312 -15579844.610 10 0 60638 16200.00000 0 12769438.312 -17826605.873 -13054695.663 10 0 60638 17100.00000 0 13772537.224 -18877638.378 -10276306.115 10 0 60638 18000.00000 0 14440974.815 -19753385.795 -7298733.646 10 0 60638 18900.00000 0 14791582.089 -20398035.631 -4179800.105 10 0 60638 19800.00000 0 14852898.116 -20762247.744 -979968.792 10 0 60638 20700.00000 0 14663728.524 -20805324.953 2238822.021 10 0 60638 21600.00000 0 14271290.612 -20497036.060 5414347.197 10 0 60638 22500.00000 0 13729024.384 -19819016.583 8485282.286 10 0 60638 23400.00000 0 13094161.956 -18765690.215 11392368.837 10 0 60638 24300.00000 0 12425157.060 -17344673.769 14079536.580 10 0 60638 25200.00000 0 11779081.453 -15576649.420 16494962.770 10 0 60638 26100.00000 0 11209095.893 -13494709.635 18592050.256 10 0 60638 27000.00000 0 10762099.905 -11143201.264 20330307.516 10 0 60638 27900.00000 0 10476657.031 -8576115.308 21676115.599 10 0 60638 28800.00000 0 10381281.048 -5855086.936 22603368.737 10 0 60638 29700.00000 0 10493154.054 -3047085.900 23093977.394 10 0 60638 30600.00000 0 10817330.025 -221889.896 23138224.522 10 0 60638 31500.00000 0 11346457.970 2550557.549 22734967.949 10 0 60638 32400.00000 0 12061037.960 5202798.167 21891684.069 10 0 60638 33300.00000 0 12930201.687 7672411.517 20624350.377 10 0 60638 34200.00000 0 13912987.722 9904364.770 18957166.967 10 0 60638 35100.00000 0 14960061.062 11853062.937 16922119.795 10 0 60638 36000.00000 0 16015807.696 13484014.158 14558391.414 10 0 60638 36900.00000 0 17020718.515 14775039.737 11911627.885 10 0 60638 37800.00000 0 17913963.888 15716976.882 9033073.724 10 0 60638 38700.00000 0 18636050.982 16313842.884 5978589.763 10 0 60638 39600.00000 0 19131451.220 16582451.929 2807571.912 10 0 60638 40500.00000 0 19351085.357 16551499.041 -418208.504 10 0 60638 41400.00000 0 19254558.688 16260148.680 -3635819.770 10 0 60638 42300.00000 0 18812048.751 15756187.226 -6782415.155 10 0 60638 43200.00000 0 18005762.312 15093817.974 -9796482.416 10 0 60638 44100.00000 0 16830896.702 14331193.297 -12619070.712 10 0 60638 45000.00000 0 15296061.921 13527790.502 -15194968.276 10 0 60638 45900.00000 0 13423143.471 12741745.080 -17473805.334 10 0 60638 46800.00000 0 11246610.245 12027256.976 -19411058.409 10 0 60638 47700.00000 0 8812296.143 11432182.311 -20968934.534 10 0 60638 48600.00000 0 6175706.965 10995914.607 -22117116.846 10 0 60638 49500.00000 0 3399924.626 10747646.607 -22833356.464 10 0 60638 50400.00000 0 553197.969 10705086.823 -23103899.151 10 0 60638 51300.00000 0 -2293677.462 10873684.769 -22923739.176 10 0 60638 52200.00000 0 -5070079.867 11246396.542 -22296696.677 10 0 60638 53100.00000 0 -7708267.296 11803998.855 -21235318.655 10 0 60638 54000.00000 0 -10145956.350 12515936.068 -19760607.440 10 0 60638 54900.00000 0 -12328666.495 13341662.009 -17901583.929 10 0 60638 55800.00000 0 -14211733.686 14232417.593 -15694696.117 10 0 60638 56700.00000 0 -15761911.570 15133367.168 -13183086.295 10 0 60638 57600.00000 0 -16958496.449 15986001.870 -10415732.801 10 0 60638 58500.00000 0 -17793932.414 16730707.689 -7446484.365 10 0 60638 59400.00000 0 -18273875.078 17309389.710 -4333006.751 10 0 60638 60300.00000 0 -18416714.831 17668042.358 -1135662.691 10 0 60638 61200.00000 0 -18252582.854 17759158.409 2083653.055 10 0 60638 62100.00000 0 -17821884.245 17543876.857 5262701.306 10 0 60638 63000.00000 0 -17173421.632 16993781.004 8340086.596 10 0 60638 63900.00000 0 -16362188.979 16092272.979 11256424.056 10 0 60638 64800.00000 0 -15446928.196 14835468.458 13955464.170 10 0 60638 65700.00000 0 -14487550.253 13232575.102 16385155.561 10 0 60638 66600.00000 0 -13542527.482 11305739.136 18498627.378 10 0 60638 67500.00000 0 -12666364.441 9089365.978 20255074.381 10 0 60638 68400.00000 0 -11907251.231 6628941.823 21620529.640 10 0 60638 69300.00000 0 -11304995.597 3979403.053 22568511.491 10 0 60638 70200.00000 0 -10889318.876 1203118.394 23080533.441 10 0 60638 71100.00000 0 -10678586.268 -1632435.725 23146467.690 10 0 60638 72000.00000 0 -10679024.543 -4457213.581 22764755.075 10 0 60638 72900.00000 0 -10884460.779 -7201250.423 21942456.518 10 0 60638 73800.00000 0 -11276594.752 -9797317.519 20695143.381 10 0 60638 74700.00000 0 -11825795.842 -12183473.981 19046626.707 10 0 60638 75600.00000 0 -12492393.757 -14305410.701 17028528.061 10 0 60638 76500.00000 0 -13228411.596 -16118489.256 14679697.461 10 0 60638 77400.00000 0 -13979670.875 -17589390.281 12045487.027 10 0 60638 78300.00000 0 -14688181.741 -18697301.163 9176892.006 10 0 60638 79200.00000 0 -15294718.603 -19434591.540 6129573.913 10 0 60638 80100.00000 0 -15741472.433 -19806946.165 2962783.656 10 0 60638 81000.00000 0 -15974666.536 -19832947.582 -261794.855 10 0 60638 81900.00000 0 -15947023.100 -19543124.580 -3481257.615 10 0 60638 82800.00000 0 -15619973.280 -18978505.645 -6632725.024 10 0 60638 83700.00000 0 -14965513.927 -18188738.368 -9654591.825 10 0 60638 84600.00000 0 -13967628.931 -17229855.081 -12487755.710 10 0 60638 85500.00000 0 -12623211.793 -16161780.780 -15076797.972 99